Terminal Aerodrome Forecast
Issued by NWS Wichita, KS

Home | Current Version | Previous Version | Text Only | Print | Product List | Glossary On
Versions: 1 2 3 4 5 6 7 8 9 10 11 12 13 14 15 16 17 18 19
000
FTUS43 KICT 250908 AAB
TAFICT
TAF AMD
KICT 250908Z 2509/2606 34012KT 6SM -RA OVC020
      TEMPO 2509/2513 4SM SHRA BR OVC008
     FM252100 35009KT P6SM VCSH OVC015
     FM260000 34010G18KT P6SM BKN045
     FM260400 35006KT P6SM SCT200=

USA.gov is the U.S. government's official web portal to all federal, state and local government web resources and services.